Zurück zum Katalog

STARLINK-32405

AktivKommunikationVLEO
NORAD 61636·PAYLOAD·🇺🇸 United States

Gestartet Oct 23, 2024 von Cape Canaveral Space Force Station

Loading…

Nächste Überflüge (nächste 24 Stunden)

TLE

AktuellSource: CelesTrak SupGP

Epoche: Sep 14, 2026, 21:15 UTC

1 61636C 24191R   26257.88590278 -.00026997  00000+0 -97772-3 0  2574
2 61636  43.0006 169.8659 0001376 264.2029 220.8760 15.27595657    11

Verfolge STARLINK-32405 in Echtzeit mit AllMySat

Download on the App Store